Overview Statistics Trail Chart Weather Telemetry Raw packets
 

This is the latest recevied weather packets stored in our database for station/object W4UWO. If no packets are shown the sender has not sent any weather packets the latest 10 day(s).

<< 50 51 52 53 54 55 56 >>
Time Temp. Humidity Pressure Rain* Wind** Luminosity Snow
1788280401 35° C 44% 1021.3 hPa 0 mm - 790 W/m² -
1788280096 33.89° C 48% 1021.2 hPa 0 mm - 779 W/m² -
1788279795 33.89° C 46% 1021.5 hPa 0 mm - 765 W/m² -
1788279494 33.89° C 48% 1021.5 hPa 0 mm - 767 W/m² -
1788279188 33.89° C 47% 1021.4 hPa 0 mm - 725 W/m² -
1788278884 34.44° C 50% 1021.4 hPa 0 mm - 735 W/m² -
1788278580 33.33° C 52% 1021.6 hPa 0 mm - 723 W/m² -
1788278279 33.33° C 51% 1021.6 hPa 0 mm - 713 W/m² -
1788277974 32.78° C 51% 1021.5 hPa 0 mm - 706 W/m² -
1788277670 32.78° C 54% 1021.6 hPa 0 mm - 696 W/m² -
1788277364 33.33° C 53% 1021.9 hPa 0 mm - 687 W/m² -
1788277060 33.33° C 54% 1021.6 hPa 0 mm - 674 W/m² -
1788276759 32.78° C 55% 1021.7 hPa 0 mm - 663 W/m² -
1788276458 32.78° C 53% 1021.8 hPa 0 mm - 650 W/m² -
1788276157 32.78° C 55% 1021.6 hPa 0 mm - 635 W/m² -
1788275852 32.78° C 55% 1021.8 hPa 0 mm - 621 W/m² -
1788275547 32.78° C 56% 1021.7 hPa 0 mm - 608 W/m² -
1788275246 32.22° C 57% 1021.8 hPa 0 mm - 595 W/m² -
1788274945 31.67° C 59% 1021.7 hPa 0 mm - 580 W/m² -
1788274643 32.22° C 59% 1021.7 hPa 0 mm - 566 W/m² -
1788274342 31.67° C 59% 1021.7 hPa 0 mm - 552 W/m² -
1788274038 31.11° C 61% 1021.6 hPa 0 mm - 536 W/m² -
1788273733 31.11° C 62% 1021.9 hPa 0 mm - 518 W/m² -
1788273428 30.56° C 63% 1021.8 hPa 0 mm - 501 W/m² -
1788273125 30.56° C 63% 1021.8 hPa 0 mm - 488 W/m² -

* Rain latest hour (hover to see other rain measurements)
** Current wind speed in m/s (hover to see current wind gust speed)